datetime,flow
1950-01-01,33.0
1950-01-02,33.0
1950-01-03,32.0
1950-01-04,30.0
1950-01-05,32.0
1950-01-06,34.0
1950-01-07,36.0
1950-01-08,38.0
1950-01-09,39.0
1950-01-10,39.0
1950-01-11,44.0
1950-01-12,46.0
1950-01-13,42.0
1950-01-14,52.0
1950-01-15,48.0
1950-01-16,49.0
1950-01-17,54.0
1950-01-18,54.0
1950-01-19,49.0
1950-01-20,49.0
1950-01-21,48.0
1950-01-22,48.0
1950-01-23,48.0
1950-01-24,47.0
1950-01-25,43.0
1950-01-26,41.0
1950-01-27,45.0
1950-01-28,49.0
1950-01-29,49.0
1950-01-30,47.0
1950-01-31,43.0
1950-02-01,45.0
1950-02-02,42.0
1950-02-03,49.0
1950-02-04,55.0
1950-02-05,56.0
1950-02-06,52.0
1950-02-07,48.0
1950-02-08,42.0
1950-02-09,38.0
1950-02-10,40.0
1950-02-11,49.0
1950-02-12,49.0
1950-02-13,45.0
1950-02-14,45.0
1950-02-15,50.0
1950-02-16,52.0
1950-02-17,52.0
1950-02-18,54.0
1950-02-19,54.0
1950-02-20,62.0
1950-02-21,65.0
1950-02-22,55.0
1950-02-23,60.0
1950-02-24,63.0
1950-02-25,65.0
1950-02-26,72.0
1950-02-27,85.0
1950-02-28,80.0
1950-03-01,78.0
1950-03-02,78.0
1950-03-03,74.0
1950-03-04,78.0
1950-03-05,82.0
1950-03-06,87.0
1950-03-07,64.0
1950-03-08,70.0
1950-03-09,82.0
1950-03-10,72.0
1950-03-11,63.0
1950-03-12,61.0
1950-03-13,51.0
1950-03-14,60.0
1950-03-15,65.0
1950-03-16,65.0
1950-03-17,74.0
1950-03-18,85.0
1950-03-19,80.0
1950-03-20,95.0
1950-03-21,85.0
1950-03-22,95.0
1950-03-23,109.0
1950-03-24,122.0
1950-03-25,141.0
1950-03-26,124.0
1950-03-27,97.0
1950-03-28,99.0
1950-03-29,92.0
1950-03-30,101.0
1950-03-31,117.0
1950-04-01,169.0
1950-04-02,224.0
1950-04-03,301.0
1950-04-04,274.0
1950-04-05,266.0
1950-04-06,297.0
1950-04-07,333.0
1950-04-08,411.0
1950-04-09,349.0
1950-04-10,262.0
1950-04-11,270.0
1950-04-12,313.0
1950-04-13,349.0
1950-04-14,385.0
1950-04-15,415.0
1950-04-16,361.0
1950-04-17,341.0
1950-04-18,424.0
1950-04-19,486.0
1950-04-20,572.0
1950-04-21,757.0
1950-04-22,890.0
1950-04-23,971.0
1950-04-24,953.0
1950-04-25,873.0
1950-04-26,822.0
1950-04-27,873.0
1950-04-28,917.0
1950-04-29,899.0
1950-04-30,789.0
1950-05-01,797.0
1950-05-02,873.0
1950-05-03,926.0
1950-05-04,944.0
1950-05-05,704.0
1950-05-06,590.0
1950-05-07,502.0
1950-05-08,461.0
1950-05-09,437.0
1950-05-10,456.0
1950-05-11,480.0
1950-05-12,536.0
1950-05-13,560.0
1950-05-14,554.0
1950-05-15,648.0
1950-05-16,757.0
1950-05-17,908.0
1950-05-18,926.0
1950-05-19,935.0
1950-05-20,822.0
1950-05-21,926.0
1950-05-22,1090.0
1950-05-23,1140.0
1950-05-24,1200.0
1950-05-25,1270.0
1950-05-26,1160.0
1950-05-27,1080.0
1950-05-28,1020.0
1950-05-29,944.0
1950-05-30,1020.0
1950-05-31,1200.0
1950-06-01,1280.0
1950-06-02,1220.0
1950-06-03,1240.0
1950-06-04,1000.0
1950-06-05,805.0
1950-06-06,797.0
1950-06-07,1000.0
1950-06-08,830.0
1950-06-09,773.0
1950-06-10,789.0
1950-06-11,856.0
1950-06-12,873.0
1950-06-13,822.0
1950-06-14,789.0
1950-06-15,765.0
1950-06-16,765.0
1950-06-17,741.0
1950-06-18,704.0
1950-06-19,641.0
1950-06-20,609.0
1950-06-21,554.0
1950-06-22,578.0
1950-06-23,596.0
1950-06-24,524.0
1950-06-25,492.0
1950-06-26,470.0
1950-06-27,433.0
1950-06-28,411.0
1950-06-29,381.0
1950-06-30,369.0
1950-07-01,341.0
1950-07-02,313.0
1950-07-03,293.0
1950-07-04,289.0
1950-07-05,270.0
1950-07-06,262.0
1950-07-07,252.0
1950-07-08,234.0
1950-07-09,252.0
1950-07-10,255.0
1950-07-11,321.0
1950-07-12,293.0
1950-07-13,293.0
1950-07-14,262.0
1950-07-15,248.0
1950-07-16,255.0
1950-07-17,214.0
1950-07-18,204.0
1950-07-19,189.0
1950-07-20,181.0
1950-07-21,178.0
1950-07-22,189.0
1950-07-23,178.0
1950-07-24,175.0
1950-07-25,179.0
1950-07-26,185.0
1950-07-27,204.0
1950-07-28,176.0
1950-07-29,172.0
1950-07-30,152.0
1950-07-31,138.0
1950-08-01,130.0
1950-08-02,118.0
1950-08-03,113.0
1950-08-04,104.0
1950-08-05,95.0
1950-08-06,95.0
1950-08-07,100.0
1950-08-08,89.0
1950-08-09,84.0
1950-08-10,77.0
1950-08-11,72.0
1950-08-12,71.0
1950-08-13,68.0
1950-08-14,64.0
1950-08-15,62.0
1950-08-16,65.0
1950-08-17,64.0
1950-08-18,65.0
1950-08-19,65.0
1950-08-20,62.0
1950-08-21,55.0
1950-08-22,52.0
1950-08-23,48.0
1950-08-24,44.0
1950-08-25,42.0
1950-08-26,46.0
1950-08-27,48.0
1950-08-28,46.0
1950-08-29,42.0
1950-08-30,41.0
1950-08-31,39.0
1950-09-01,38.0
1950-09-02,37.0
1950-09-03,38.0
1950-09-04,38.0
1950-09-05,37.0
1950-09-06,40.0
1950-09-07,44.0
1950-09-08,45.0
1950-09-09,45.0
1950-09-10,42.0
1950-09-11,42.0
1950-09-12,42.0
1950-09-13,40.0
1950-09-14,38.0
1950-09-15,38.0
1950-09-16,37.0
1950-09-17,36.0
1950-09-18,41.0
1950-09-19,60.0
1950-09-20,102.0
1950-09-21,95.0
1950-09-22,79.0
1950-09-23,81.0
1950-09-24,76.0
1950-09-25,72.0
1950-09-26,76.0
1950-09-27,72.0
1950-09-28,64.0
1950-09-29,60.0
1950-09-30,62.0
1950-10-01,88.0
1950-10-02,123.0
1950-10-03,95.0
1950-10-04,81.0
1950-10-05,71.0
1950-10-06,65.0
1950-10-07,60.0
1950-10-08,58.0
1950-10-09,55.0
1950-10-10,53.0
1950-10-11,53.0
1950-10-12,51.0
1950-10-13,49.0
1950-10-14,46.0
1950-10-15,46.0
1950-10-16,46.0
1950-10-17,46.0
1950-10-18,46.0
1950-10-19,45.0
1950-10-20,45.0
1950-10-21,45.0
1950-10-22,44.0
1950-10-23,45.0
1950-10-24,45.0
1950-10-25,45.0
1950-10-26,44.0
1950-10-27,44.0
1950-10-28,42.0
1950-10-29,42.0
1950-10-30,41.0
1950-10-31,41.0
1950-11-01,40.0
1950-11-02,40.0
1950-11-03,39.0
1950-11-04,36.0
1950-11-05,37.0
1950-11-06,37.0
1950-11-07,37.0
1950-11-08,38.0
1950-11-09,36.0
1950-11-10,29.0
1950-11-11,29.0
1950-11-12,28.0
1950-11-13,30.0
1950-11-14,30.0
1950-11-15,24.0
1950-11-16,23.0
1950-11-17,26.0
1950-11-18,36.0
1950-11-19,47.0
1950-11-20,49.0
1950-11-21,48.0
1950-11-22,48.0
1950-11-23,46.0
1950-11-24,45.0
1950-11-25,47.0
1950-11-26,47.0
1950-11-27,46.0
1950-11-28,44.0
1950-11-29,44.0
1950-11-30,44.0
1950-12-01,48.0
1950-12-02,43.0
1950-12-03,26.0
1950-12-04,41.0
1950-12-05,35.0
1950-12-06,28.0
1950-12-07,38.0
1950-12-08,41.0
1950-12-09,36.0
1950-12-10,35.0
1950-12-11,37.0
1950-12-12,39.0
1950-12-13,36.0
1950-12-14,36.0
1950-12-15,36.0
1950-12-16,36.0
1950-12-17,36.0
1950-12-18,35.0
1950-12-19,34.0
1950-12-20,35.0
1950-12-21,33.0
1950-12-22,34.0
1950-12-23,32.0
1950-12-24,32.0
1950-12-25,32.0
1950-12-26,32.0
1950-12-27,32.0
1950-12-28,29.0
1950-12-29,32.0
1950-12-30,26.0
1950-12-31,29.0
1951-01-01,28.0
1951-01-02,28.0
1951-01-03,26.0
1951-01-04,31.0
1951-01-05,34.0
1951-01-06,35.0
1951-01-07,35.0
1951-01-08,36.0
1951-01-09,39.0
1951-01-10,40.0
1951-01-11,38.0
1951-01-12,38.0
1951-01-13,38.0
1951-01-14,37.0
1951-01-15,38.0
1951-01-16,38.0
1951-01-17,39.0
1951-01-18,39.0
1951-01-19,39.0
1951-01-20,38.0
1951-01-21,36.0
1951-01-22,36.0
1951-01-23,36.0
1951-01-24,35.0
1951-01-25,34.0
1951-01-26,32.0
1951-01-27,31.0
1951-01-28,31.0
1951-01-29,32.0
1951-01-30,32.0
1951-01-31,31.0
1951-02-01,35.0
1951-02-02,38.0
1951-02-03,43.0
1951-02-04,45.0
1951-02-05,45.0
1951-02-06,45.0
1951-02-07,44.0
1951-02-08,44.0
1951-02-09,43.0
1951-02-10,43.0
1951-02-11,44.0
1951-02-12,49.0
1951-02-13,47.0
1951-02-14,42.0
1951-02-15,47.0
1951-02-16,46.0
1951-02-17,44.0
1951-02-18,41.0
1951-02-19,45.0
1951-02-20,40.0
1951-02-21,42.0
1951-02-22,42.0
1951-02-23,43.0
1951-02-24,42.0
1951-02-25,42.0
1951-02-26,41.0
1951-02-27,42.0
1951-02-28,37.0
1951-03-01,41.0
1951-03-02,42.0
1951-03-03,36.0
1951-03-04,42.0
1951-03-05,42.0
1951-03-06,42.0
1951-03-07,40.0
1951-03-08,41.0
1951-03-09,46.0
1951-03-10,59.0
1951-03-11,57.0
1951-03-12,47.0
1951-03-13,55.0
1951-03-14,55.0
1951-03-15,57.0
1951-03-16,65.0
1951-03-17,66.0
1951-03-18,60.0
1951-03-19,59.0
1951-03-20,60.0
1951-03-21,68.0
1951-03-22,77.0
1951-03-23,72.0
1951-03-24,74.0
1951-03-25,86.0
1951-03-26,98.0
1951-03-27,95.0
1951-03-28,86.0
1951-03-29,70.0
1951-03-30,70.0
1951-03-31,66.0
1951-04-01,59.0
1951-04-02,57.0
1951-04-03,64.0
1951-04-04,76.0
1951-04-05,74.0
1951-04-06,77.0
1951-04-07,68.0
1951-04-08,71.0
1951-04-09,70.0
1951-04-10,79.0
1951-04-11,62.0
1951-04-12,66.0
1951-04-13,70.0
1951-04-14,84.0
1951-04-15,111.0
1951-04-16,113.0
1951-04-17,133.0
1951-04-18,144.0
1951-04-19,138.0
1951-04-20,141.0
1951-04-21,182.0
1951-04-22,217.0
1951-04-23,270.0
1951-04-24,309.0
1951-04-25,244.0
1951-04-26,270.0
1951-04-27,217.0
1951-04-28,255.0
1951-04-29,293.0
1951-04-30,237.0
1951-05-01,198.0
1951-05-02,172.0
1951-05-03,160.0
1951-05-04,176.0
1951-05-05,227.0
1951-05-06,337.0
1951-05-07,411.0
1951-05-08,466.0
1951-05-09,492.0
1951-05-10,492.0
1951-05-11,536.0
1951-05-12,596.0
1951-05-13,584.0
1951-05-14,492.0
1951-05-15,424.0
1951-05-16,385.0
1951-05-17,402.0
1951-05-18,369.0
1951-05-19,394.0
1951-05-20,542.0
1951-05-21,704.0
1951-05-22,690.0
1951-05-23,725.0
1951-05-24,814.0
1951-05-25,944.0
1951-05-26,1330.0
1951-05-27,1670.0
1951-05-28,1810.0
1951-05-29,1720.0
1951-05-30,1610.0
1951-05-31,1490.0
1951-06-01,1290.0
1951-06-02,962.0
1951-06-03,953.0
1951-06-04,864.0
1951-06-05,781.0
1951-06-06,839.0
1951-06-07,890.0
1951-06-08,926.0
1951-06-09,935.0
1951-06-10,899.0
1951-06-11,822.0
1951-06-12,765.0
1951-06-13,757.0
1951-06-14,757.0
1951-06-15,749.0
1951-06-16,741.0
1951-06-17,797.0
1951-06-18,789.0
1951-06-19,733.0
1951-06-20,697.0
1951-06-21,675.0
1951-06-22,609.0
1951-06-23,508.0
1951-06-24,452.0
1951-06-25,415.0
1951-06-26,381.0
1951-06-27,349.0
1951-06-28,325.0
1951-06-29,301.0
1951-06-30,278.0
1951-07-01,252.0
1951-07-02,237.0
1951-07-03,214.0
1951-07-04,198.0
1951-07-05,185.0
1951-07-06,160.0
1951-07-07,146.0
1951-07-08,136.0
1951-07-09,126.0
1951-07-10,109.0
1951-07-11,100.0
1951-07-12,93.0
1951-07-13,91.0
1951-07-14,104.0
1951-07-15,93.0
1951-07-16,95.0
1951-07-17,89.0
1951-07-18,104.0
1951-07-19,118.0
1951-07-20,102.0
1951-07-21,89.0
1951-07-22,84.0
1951-07-23,88.0
1951-07-24,98.0
1951-07-25,91.0
1951-07-26,79.0
1951-07-27,70.0
1951-07-28,81.0
1951-07-29,74.0
1951-07-30,74.0
1951-07-31,82.0
1951-08-01,82.0
1951-08-02,106.0
1951-08-03,93.0
1951-08-04,93.0
1951-08-05,113.0
1951-08-06,100.0
1951-08-07,86.0
1951-08-08,70.0
1951-08-09,59.0
1951-08-10,52.0
1951-08-11,48.0
1951-08-12,45.0
1951-08-13,41.0
1951-08-14,38.0
1951-08-15,36.0
1951-08-16,33.0
1951-08-17,32.0
1951-08-18,32.0
1951-08-19,30.0
1951-08-20,35.0
1951-08-21,37.0
1951-08-22,43.0
1951-08-23,53.0
1951-08-24,62.0
1951-08-25,146.0
1951-08-26,98.0
1951-08-27,68.0
1951-08-28,58.0
1951-08-29,59.0
1951-08-30,98.0
1951-08-31,149.0
1951-09-01,98.0
1951-09-02,76.0
1951-09-03,64.0
1951-09-04,57.0
1951-09-05,49.0
1951-09-06,47.0
1951-09-07,43.0
1951-09-08,43.0
1951-09-09,42.0
1951-09-10,40.0
1951-09-11,37.0
1951-09-12,35.0
1951-09-13,31.0
1951-09-14,30.0
1951-09-15,29.0
1951-09-16,29.0
1951-09-17,36.0
1951-09-18,30.0
1951-09-19,28.0
1951-09-20,27.0
1951-09-21,28.0
1951-09-22,33.0
1951-09-23,36.0
1951-09-24,31.0
1951-09-25,32.0
1951-09-26,29.0
1951-09-27,28.0
1951-09-28,28.0
1951-09-29,29.0
1951-09-30,31.0
1951-10-01,31.0
1951-10-02,31.0
1951-10-03,33.0
1951-10-04,35.0
1951-10-05,36.0
1951-10-06,35.0
1951-10-07,34.0
1951-10-08,34.0
1951-10-09,34.0
1951-10-10,33.0
1951-10-11,33.0
1951-10-12,33.0
1951-10-13,32.0
1951-10-14,32.0
1951-10-15,32.0
1951-10-16,32.0
1951-10-17,30.0
1951-10-18,31.0
1951-10-19,31.0
1951-10-20,31.0
1951-10-21,34.0
1951-10-22,34.0
1951-10-23,32.0
1951-10-24,32.0
1951-10-25,35.0
1951-10-26,46.0
1951-10-27,64.0
1951-10-28,52.0
1951-10-29,46.0
1951-10-30,45.0
1951-10-31,45.0
1951-11-01,45.0
1951-11-02,36.0
1951-11-03,35.0
1951-11-04,42.0
1951-11-05,41.0
1951-11-06,32.0
1951-11-07,32.0
1951-11-08,36.0
1951-11-09,36.0
1951-11-10,32.0
1951-11-11,33.0
1951-11-12,34.0
1951-11-13,34.0
1951-11-14,29.0
1951-11-15,34.0
1951-11-16,26.0
1951-11-17,25.0
1951-11-18,37.0
1951-11-19,36.0
1951-11-20,35.0
1951-11-21,37.0
1951-11-22,36.0
1951-11-23,34.0
1951-11-24,33.0
1951-11-25,27.0
1951-11-26,29.0
1951-11-27,37.0
1951-11-28,36.0
1951-11-29,32.0
1951-11-30,34.0
1951-12-01,33.0
1951-12-02,33.0
1951-12-03,31.0
1951-12-04,32.0
1951-12-05,27.0
1951-12-06,20.0
1951-12-07,19.0
1951-12-08,22.0
1951-12-09,21.0
1951-12-10,31.0
1951-12-11,38.0
1951-12-12,39.0
1951-12-13,36.0
1951-12-14,34.0
1951-12-15,32.0
1951-12-16,31.0
1951-12-17,33.0
1951-12-18,33.0
1951-12-19,32.0
1951-12-20,35.0
1951-12-21,35.0
1951-12-22,37.0
1951-12-23,38.0
1951-12-24,39.0
1951-12-25,39.0
1951-12-26,38.0
1951-12-27,37.0
1951-12-28,37.0
1951-12-29,37.0
1951-12-30,40.0
1951-12-31,36.0
1952-01-01,27.0
1952-01-02,23.0
1952-01-03,23.0
1952-01-04,25.0
1952-01-05,28.0
1952-01-06,30.0
1952-01-07,36.0
1952-01-08,38.0
1952-01-09,35.0
1952-01-10,37.0
1952-01-11,42.0
1952-01-12,44.0
1952-01-13,44.0
1952-01-14,52.0
1952-01-15,45.0
1952-01-16,42.0
1952-01-17,43.0
1952-01-18,45.0
1952-01-19,47.0
1952-01-20,43.0
1952-01-21,43.0
1952-01-22,43.0
1952-01-23,46.0
1952-01-24,47.0
1952-01-25,47.0
1952-01-26,48.0
1952-01-27,45.0
1952-01-28,43.0
1952-01-29,44.0
1952-01-30,44.0
1952-01-31,45.0
1952-02-01,44.0
1952-02-02,44.0
1952-02-03,42.0
1952-02-04,42.0
1952-02-05,45.0
1952-02-06,43.0
1952-02-07,44.0
1952-02-08,47.0
1952-02-09,47.0
1952-02-10,46.0
1952-02-11,46.0
1952-02-12,43.0
1952-02-13,42.0
1952-02-14,41.0
1952-02-15,42.0
1952-02-16,42.0
1952-02-17,40.0
1952-02-18,42.0
1952-02-19,42.0
1952-02-20,41.0
1952-02-21,41.0
1952-02-22,42.0
1952-02-23,42.0
1952-02-24,42.0
1952-02-25,42.0
1952-02-26,42.0
1952-02-27,49.0
1952-02-28,53.0
1952-02-29,52.0
1952-03-01,49.0
1952-03-02,48.0
1952-03-03,42.0
1952-03-04,39.0
1952-03-05,41.0
1952-03-06,44.0
1952-03-07,47.0
1952-03-08,48.0
1952-03-09,46.0
1952-03-10,44.0
1952-03-11,42.0
1952-03-12,40.0
1952-03-13,40.0
1952-03-14,41.0
1952-03-15,47.0
1952-03-16,47.0
1952-03-17,53.0
1952-03-18,55.0
1952-03-19,58.0
1952-03-20,57.0
1952-03-21,55.0
1952-03-22,49.0
1952-03-23,53.0
1952-03-24,52.0
1952-03-25,54.0
1952-03-26,55.0
1952-03-27,54.0
1952-03-28,62.0
1952-03-29,58.0
1952-03-30,62.0
1952-03-31,70.0
1952-04-01,74.0
1952-04-02,88.0
1952-04-03,100.0
1952-04-04,128.0
1952-04-05,152.0
1952-04-06,179.0
1952-04-07,227.0
1952-04-08,274.0
1952-04-09,255.0
1952-04-10,255.0
1952-04-11,270.0
1952-04-12,266.0
1952-04-13,259.0
1952-04-14,305.0
1952-04-15,377.0
1952-04-16,411.0
1952-04-17,466.0
1952-04-18,548.0
1952-04-19,622.0
1952-04-20,668.0
1952-04-21,530.0
1952-04-22,437.0
1952-04-23,428.0
1952-04-24,536.0
1952-04-25,654.0
1952-04-26,749.0
1952-04-27,944.0
1952-04-28,962.0
1952-04-29,935.0
1952-04-30,962.0
1952-05-01,1160.0
1952-05-02,1460.0
1952-05-03,1750.0
1952-05-04,2030.0
1952-05-05,1890.0
1952-05-06,1850.0
1952-05-07,1960.0
1952-05-08,1810.0
1952-05-09,1870.0
1952-05-10,1430.0
1952-05-11,1590.0
1952-05-12,1810.0
1952-05-13,1930.0
1952-05-14,2180.0
1952-05-15,1980.0
1952-05-16,1900.0
1952-05-17,1690.0
1952-05-18,1510.0
1952-05-19,1310.0
1952-05-20,1220.0
1952-05-21,1280.0
1952-05-22,1410.0
1952-05-23,1370.0
1952-05-24,1420.0
1952-05-25,1530.0
1952-05-26,1700.0
1952-05-27,1860.0
1952-05-28,1970.0
1952-05-29,2000.0
1952-05-30,2220.0
1952-05-31,1870.0
1952-06-01,1810.0
1952-06-02,2020.0
1952-06-03,1900.0
1952-06-04,1950.0
1952-06-05,1890.0
1952-06-06,2170.0
1952-06-07,2220.0
1952-06-08,2220.0
1952-06-09,2200.0
1952-06-10,2290.0
1952-06-11,2400.0
1952-06-12,2200.0
1952-06-13,2010.0
1952-06-14,1950.0
1952-06-15,2110.0
1952-06-16,2200.0
1952-06-17,1810.0
1952-06-18,1810.0
1952-06-19,1910.0
1952-06-20,2050.0
1952-06-21,1970.0
1952-06-22,1770.0
1952-06-23,1630.0
1952-06-24,1610.0
1952-06-25,1680.0
1952-06-26,1700.0
1952-06-27,1640.0
1952-06-28,1520.0
1952-06-29,1470.0
1952-06-30,1440.0
1952-07-01,1440.0
1952-07-02,1390.0
1952-07-03,1370.0
1952-07-04,1350.0
1952-07-05,1390.0
1952-07-06,1380.0
1952-07-07,1300.0
1952-07-08,1280.0
1952-07-09,1240.0
1952-07-10,1220.0
1952-07-11,1150.0
1952-07-12,1110.0
1952-07-13,1060.0
1952-07-14,1010.0
1952-07-15,977.0
1952-07-16,959.0
1952-07-17,933.0
1952-07-18,933.0
1952-07-19,915.0
1952-07-20,898.0
1952-07-21,889.0
1952-07-22,863.0
1952-07-23,863.0
1952-07-24,848.0
1952-07-25,863.0
1952-07-26,872.0
1952-07-27,889.0
1952-07-28,924.0
1952-07-29,950.0
1952-07-30,898.0
1952-07-31,898.0
1952-08-01,933.0
1952-08-02,959.0
1952-08-03,889.0
1952-08-04,848.0
1952-08-05,848.0
1952-08-06,825.0
1952-08-07,787.0
1952-08-08,810.0
1952-08-09,795.0
1952-08-10,810.0
1952-08-11,802.0
1952-08-12,773.0
1952-08-13,665.0
1952-08-14,780.0
1952-08-15,745.0
1952-08-16,717.0
1952-08-17,704.0
1952-08-18,738.0
1952-08-19,773.0
1952-08-20,773.0
1952-08-21,766.0
1952-08-22,584.0
1952-08-23,314.0
1952-08-24,267.0
1952-08-25,234.0
1952-08-26,232.0
1952-08-27,217.0
1952-08-28,229.0
1952-08-29,226.0
1952-08-30,191.0
1952-08-31,171.0
1952-09-01,150.0
1952-09-02,139.0
1952-09-03,130.0
1952-09-04,123.0
1952-09-05,117.0
1952-09-06,112.0
1952-09-07,110.0
1952-09-08,102.0
1952-09-09,95.0
1952-09-10,95.0
1952-09-11,92.0
1952-09-12,102.0
1952-09-13,154.0
1952-09-14,123.0
1952-09-15,100.0
1952-09-16,97.0
1952-09-17,95.0
1952-09-18,87.0
1952-09-19,82.0
1952-09-20,80.0
1952-09-21,119.0
1952-09-22,232.0
1952-09-23,196.0
1952-09-24,152.0
1952-09-25,132.0
1952-09-26,121.0
1952-09-27,115.0
1952-09-28,110.0
1952-09-29,104.0
1952-09-30,104.0
1952-10-01,97.0
1952-10-02,95.0
1952-10-03,88.0
1952-10-04,85.0
1952-10-05,82.0
1952-10-06,78.0
1952-10-07,78.0
1952-10-08,78.0
1952-10-09,76.0
1952-10-10,73.0
1952-10-11,71.0
1952-10-12,68.0
1952-10-13,68.0
1952-10-14,67.0
1952-10-15,62.0
1952-10-16,61.0
1952-10-17,61.0
1952-10-18,61.0
1952-10-19,60.0
1952-10-20,58.0
1952-10-21,58.0
1952-10-22,55.0
1952-10-23,55.0
1952-10-24,55.0
1952-10-25,53.0
1952-10-26,53.0
1952-10-27,53.0
1952-10-28,53.0
1952-10-29,51.0
1952-10-30,51.0
1952-10-31,51.0
1952-11-01,52.0
1952-11-02,54.0
1952-11-03,55.0
1952-11-04,54.0
1952-11-05,49.0
1952-11-06,49.0
1952-11-07,46.0
1952-11-08,45.0
1952-11-09,48.0
1952-11-10,41.0
1952-11-11,43.0
1952-11-12,45.0
1952-11-13,67.0
1952-11-14,53.0
1952-11-15,55.0
1952-11-16,51.0
1952-11-17,44.0
1952-11-18,39.0
1952-11-19,43.0
1952-11-20,54.0
1952-11-21,57.0
1952-11-22,54.0
1952-11-23,60.0
1952-11-24,54.0
1952-11-25,49.0
1952-11-26,32.0
1952-11-27,42.0
1952-11-28,47.0
1952-11-29,47.0
1952-11-30,47.0
1952-12-01,52.0
1952-12-02,52.0
1952-12-03,54.0
1952-12-04,46.0
1952-12-05,48.0
1952-12-06,46.0
1952-12-07,47.0
1952-12-08,48.0
1952-12-09,46.0
1952-12-10,44.0
1952-12-11,48.0
1952-12-12,51.0
1952-12-13,52.0
1952-12-14,53.0
1952-12-15,51.0
1952-12-16,51.0
1952-12-17,57.0
1952-12-18,62.0
1952-12-19,52.0
1952-12-20,44.0
1952-12-21,44.0
1952-12-22,40.0
1952-12-23,37.0
1952-12-24,36.0
1952-12-25,34.0
1952-12-26,35.0
1952-12-27,34.0
1952-12-28,35.0
1952-12-29,36.0
1952-12-30,36.0
1952-12-31,37.0
1953-01-01,38.0
1953-01-02,37.0
1953-01-03,38.0
1953-01-04,40.0
1953-01-05,40.0
1953-01-06,41.0
1953-01-07,44.0
1953-01-08,43.0
1953-01-09,44.0
1953-01-10,51.0
1953-01-11,49.0
1953-01-12,47.0
1953-01-13,46.0
1953-01-14,47.0
1953-01-15,46.0
1953-01-16,41.0
1953-01-17,43.0
1953-01-18,47.0
1953-01-19,52.0
1953-01-20,52.0
1953-01-21,52.0
1953-01-22,50.0
1953-01-23,45.0
1953-01-24,49.0
1953-01-25,49.0
1953-01-26,52.0
1953-01-27,49.0
1953-01-28,44.0
1953-01-29,48.0
1953-01-30,50.0
1953-01-31,50.0
1953-02-01,50.0
1953-02-02,54.0
1953-02-03,53.0
1953-02-04,54.0
1953-02-05,55.0
1953-02-06,54.0
1953-02-07,46.0
1953-02-08,55.0
1953-02-09,57.0
1953-02-10,47.0
1953-02-11,44.0
1953-02-12,46.0
1953-02-13,48.0
1953-02-14,48.0
1953-02-15,49.0
1953-02-16,47.0
1953-02-17,47.0
1953-02-18,50.0
1953-02-19,50.0
1953-02-20,47.0
1953-02-21,46.0
1953-02-22,45.0
1953-02-23,46.0
1953-02-24,46.0
1953-02-25,47.0
1953-02-26,48.0
1953-02-27,51.0
1953-02-28,55.0
1953-03-01,56.0
1953-03-02,49.0
1953-03-03,50.0
1953-03-04,44.0
1953-03-05,48.0
1953-03-06,52.0
1953-03-07,54.0
1953-03-08,62.0
1953-03-09,61.0
1953-03-10,69.0
1953-03-11,87.0
1953-03-12,80.0
1953-03-13,85.0
1953-03-14,73.0
1953-03-15,77.0
1953-03-16,85.0
1953-03-17,93.0
1953-03-18,102.0
1953-03-19,100.0
1953-03-20,91.0
1953-03-21,66.0
1953-03-22,60.0
1953-03-23,67.0
1953-03-24,66.0
1953-03-25,85.0
1953-03-26,108.0
1953-03-27,116.0
1953-03-28,158.0
1953-03-29,182.0
1953-03-30,165.0
1953-03-31,134.0
1953-04-01,136.0
1953-04-02,147.0
1953-04-03,182.0
1953-04-04,218.0
1953-04-05,212.0
1953-04-06,215.0
1953-04-07,174.0
1953-04-08,131.0
1953-04-09,114.0
1953-04-10,127.0
1953-04-11,154.0
1953-04-12,125.0
1953-04-13,125.0
1953-04-14,134.0
1953-04-15,142.0
1953-04-16,189.0
1953-04-17,254.0
1953-04-18,221.0
1953-04-19,254.0
1953-04-20,406.0
1953-04-21,574.0
1953-04-22,698.0
1953-04-23,745.0
1953-04-24,652.0
1953-04-25,665.0
1953-04-26,840.0
1953-04-27,1050.0
1953-04-28,1160.0
1953-04-29,787.0
1953-04-30,584.0
1953-05-01,463.0
1953-05-02,393.0
1953-05-03,335.0
1953-05-04,310.0
1953-05-05,269.0
1953-05-06,254.0
1953-05-07,306.0
1953-05-08,376.0
1953-05-09,472.0
1953-05-10,411.0
1953-05-11,359.0
1953-05-12,335.0
1953-05-13,318.0
1953-05-14,294.0
1953-05-15,298.0
1953-05-16,294.0
1953-05-17,281.0
1953-05-18,277.0
1953-05-19,290.0
1953-05-20,310.0
1953-05-21,365.0
1953-05-22,609.0
1953-05-23,926.0
1953-05-24,1240.0
1953-05-25,1270.0
1953-05-26,1520.0
1953-05-27,1650.0
1953-05-28,1810.0
1953-05-29,1670.0
1953-05-30,1380.0
1953-05-31,1360.0
1953-06-01,1470.0
1953-06-02,1480.0
1953-06-03,1510.0
1953-06-04,1470.0
1953-06-05,1420.0
1953-06-06,1360.0
1953-06-07,1310.0
1953-06-08,1130.0
1953-06-09,1220.0
1953-06-10,1310.0
1953-06-11,1280.0
1953-06-12,1270.0
1953-06-13,1370.0
1953-06-14,1340.0
1953-06-15,1240.0
1953-06-16,1110.0
1953-06-17,1190.0
1953-06-18,1150.0
1953-06-19,1100.0
1953-06-20,959.0
1953-06-21,863.0
1953-06-22,825.0
1953-06-23,780.0
1953-06-24,724.0
1953-06-25,633.0
1953-06-26,472.0
1953-06-27,397.0
1953-06-28,351.0
1953-06-29,318.0
1953-06-30,293.0
1953-07-01,285.0
1953-07-02,272.0
1953-07-03,256.0
1953-07-04,240.0
1953-07-05,227.0
1953-07-06,235.0
1953-07-07,244.0
1953-07-08,198.0
1953-07-09,190.0
1953-07-10,182.0
1953-07-11,171.0
1953-07-12,167.0
1953-07-13,153.0
1953-07-14,136.0
1953-07-15,142.0
1953-07-16,149.0
1953-07-17,198.0
1953-07-18,198.0
1953-07-19,190.0
1953-07-20,227.0
1953-07-21,186.0
1953-07-22,186.0
1953-07-23,211.0
1953-07-24,153.0
1953-07-25,133.0
1953-07-26,123.0
1953-07-27,111.0
1953-07-28,111.0
1953-07-29,120.0
1953-07-30,133.0
1953-07-31,126.0
1953-08-01,117.0
1953-08-02,117.0
1953-08-03,106.0
1953-08-04,93.0
1953-08-05,84.0
1953-08-06,78.0
1953-08-07,73.0
1953-08-08,66.0
1953-08-09,64.0
1953-08-10,62.0
1953-08-11,67.0
1953-08-12,71.0
1953-08-13,73.0
1953-08-14,66.0
1953-08-15,62.0
1953-08-16,64.0
1953-08-17,62.0
1953-08-18,66.0
1953-08-19,71.0
1953-08-20,67.0
1953-08-21,64.0
1953-08-22,62.0
1953-08-23,64.0
1953-08-24,59.0
1953-08-25,52.0
1953-08-26,49.0
1953-08-27,48.0
1953-08-28,46.0
1953-08-29,46.0
1953-08-30,45.0
1953-08-31,44.0
1953-09-01,42.0
1953-09-02,41.0
1953-09-03,38.0
1953-09-04,37.0
1953-09-05,34.0
1953-09-06,34.0
1953-09-07,34.0
1953-09-08,34.0
1953-09-09,33.0
1953-09-10,37.0
1953-09-11,37.0
1953-09-12,37.0
1953-09-13,38.0
1953-09-14,38.0
1953-09-15,37.0
1953-09-16,34.0
1953-09-17,33.0
1953-09-18,33.0
1953-09-19,32.0
1953-09-20,32.0
1953-09-21,30.0
1953-09-22,30.0
1953-09-23,28.0
1953-09-24,24.0
1953-09-25,24.0
1953-09-26,33.0
1953-09-27,30.0
1953-09-28,28.0
1953-09-29,30.0
1953-09-30,31.0
1953-10-01,31.0
1953-10-02,31.0
1953-10-03,32.0
1953-10-04,33.0
1953-10-05,34.0
1953-10-06,34.0
1953-10-07,33.0
1953-10-08,32.0
1953-10-09,32.0
1953-10-10,33.0
1953-10-11,33.0
1953-10-12,33.0
1953-10-13,41.0
1953-10-14,46.0
1953-10-15,45.0
1953-10-16,42.0
1953-10-17,38.0
1953-10-18,38.0
1953-10-19,38.0
1953-10-20,47.0
1953-10-21,52.0
1953-10-22,47.0
1953-10-23,47.0
1953-10-24,55.0
1953-10-25,51.0
1953-10-26,48.0
1953-10-27,45.0
1953-10-28,44.0
1953-10-29,44.0
1953-10-30,44.0
1953-10-31,44.0
1953-11-01,43.0
1953-11-02,42.0
1953-11-03,44.0
1953-11-04,44.0
1953-11-05,49.0
1953-11-06,49.0
1953-11-07,45.0
1953-11-08,45.0
1953-11-09,48.0
1953-11-10,53.0
1953-11-11,54.0
1953-11-12,53.0
1953-11-13,53.0
1953-11-14,55.0
1953-11-15,58.0
1953-11-16,58.0
1953-11-17,57.0
1953-11-18,60.0
1953-11-19,59.0
1953-11-20,49.0
1953-11-21,54.0
1953-11-22,52.0
1953-11-23,55.0
1953-11-24,57.0
1953-11-25,59.0
1953-11-26,56.0
1953-11-27,62.0
1953-11-28,59.0
1953-11-29,64.0
1953-11-30,64.0
1953-12-01,55.0
1953-12-02,49.0
1953-12-03,49.0
1953-12-04,45.0
1953-12-05,42.0
1953-12-06,50.0
1953-12-07,55.0
1953-12-08,57.0
1953-12-09,55.0
1953-12-10,55.0
1953-12-11,55.0
1953-12-12,52.0
1953-12-13,54.0
1953-12-14,52.0
1953-12-15,51.0
1953-12-16,48.0
1953-12-17,41.0
1953-12-18,33.0
1953-12-19,33.0
1953-12-20,34.0
1953-12-21,28.0
1953-12-22,27.0
1953-12-23,36.0
1953-12-24,42.0
1953-12-25,42.0
1953-12-26,44.0
1953-12-27,41.0